When you browse on this site, cookies collect data to enhance your experience and personalize the content and advertising you see.
Visit our Privacy Policy to learn more. By continuing to use the site, you agree to this use of cookies and data.
  • In Austria
  • List of Countries
  • For 7 days
  • Water Temperature
  • Weather Map
  • News
  • Weather Widgets
  • user-avatar
    Login

    Hourly Weather Zakumachnoe

    Today, 29 May, Friday

    Time Temperature Precipitation Wind Pressure Humidity
    00:00 +23°C° 0 mm 5 mps 740 mmHg 47%
    01:00 +22°C° 0 mm 4 mps 740 mmHg 48%
    02:00 +21°C° 0 mm 4 mps 740 mmHg 50%
    03:00 +21°C° 0 mm 3 mps 740 mmHg 53%
    04:00 +20°C° 0 mm 3 mps 740 mmHg 55%
    05:00 +21°C° 0 mm 3 mps 741 mmHg 53%
    06:00 +22°C° 0 mm 4 mps 741 mmHg 51%
    07:00 +23°C° 0 mm 4 mps 741 mmHg 48%
    08:00 +26°C° 0 mm 5 mps 741 mmHg 45%
    09:00 +27°C° 0 mm 5 mps 741 mmHg 42%
    10:00 +29°C° 0 mm 6 mps 741 mmHg 39%
    11:00 +30°C° 0 mm 6 mps 741 mmHg 38%
    12:00 +32°C° 0 mm 6 mps 741 mmHg 36%
    13:00 +33°C° 0 mm 7 mps 741 mmHg 35%
    14:00 +33°C° 0 mm 7 mps 741 mmHg 36%
    15:00 +32°C° 0 mm 8 mps 741 mmHg 38%
    16:00 +32°C° 0 mm 8 mps 741 mmHg 40%
    17:00 +31°C° 0 mm 8 mps 741 mmHg 47%
    18:00 +28°C° 0 mm 8 mps 741 mmHg 53%
    19:00 +26°C° 0 mm 8 mps 741 mmHg 59%
    20:00 +24°C° 0 mm 8 mps 741 mmHg 60%
    21:00 +22°C° 0 mm 8 mps 742 mmHg 60%
    22:00 +21°C° 0 mm 8 mps 742 mmHg 61%
    23:00 +20°C° 0 mm 7 mps 742 mmHg 59%

    Tomorrow, 30 May, Saturday

    Time Temperature Precipitation Wind Pressure Humidity
    00:00 +20°C° 0 mm 7 mps 742 mmHg 58%
    01:00 +18°C° 0 mm 7 mps 742 mmHg 57%
    02:00 +17°C° 0 mm 7 mps 742 mmHg 57%
    03:00 +17°C° 0 mm 6 mps 742 mmHg 57%
    04:00 +16°C° 0 mm 6 mps 742 mmHg 58%
    05:00 +17°C° 0 mm 6 mps 742 mmHg 57%
    06:00 +18°C° 0 mm 7 mps 742 mmHg 56%
    07:00 +20°C° 0 mm 7 mps 742 mmHg 55%
    08:00 +22°C° 0 mm 7 mps 742 mmHg 52%
    09:00 +24°C° 0 mm 7 mps 742 mmHg 49%
    10:00 +26°C° 0 mm 7 mps 742 mmHg 46%
    11:00 +28°C° 0 mm 6 mps 742 mmHg 43%
    12:00 +29°C° 0 mm 6 mps 741 mmHg 41%
    13:00 +30°C° 0 mm 6 mps 741 mmHg 38%
    14:00 +32°C° 0 mm 5 mps 741 mmHg 37%
    15:00 +33°C° 0 mm 4 mps 740 mmHg 36%
    16:00 +33°C° 0 mm 4 mps 740 mmHg 35%
    17:00 +31°C° 0 mm 3 mps 740 mmHg 39%
    18:00 +30°C° 0 mm 3 mps 739 mmHg 43%
    19:00 +29°C° 0 mm 3 mps 739 mmHg 47%
    20:00 +28°C° 0 mm 3 mps 739 mmHg 50%
    21:00 +26°C° 0 mm 4 mps 739 mmHg 53%
    22:00 +23°C° 0 mm 5 mps 739 mmHg 56%
    23:00 +23°C° 0 mm 4 mps 739 mmHg 59%

    Day after tomorrow, 31 May, Sunday

    Time Temperature Precipitation Wind Pressure Humidity
    00:00 +22°C° 0 mm 3 mps 738 mmHg 61%
    01:00 +21°C° 0 mm 3 mps 738 mmHg 64%
    02:00 +21°C° 0 mm 2 mps 737 mmHg 63%
    03:00 +21°C° 0 mm 2 mps 737 mmHg 63%
    04:00 +21°C° 0 mm 1 mps 737 mmHg 63%
    05:00 +23°C° 0 mm 1 mps 736 mmHg 59%
    06:00 +25°C° 0 mm 2 mps 736 mmHg 55%
    07:00 +27°C° 0 mm 2 mps 736 mmHg 50%
    08:00 +29°C° 0 mm 3 mps 736 mmHg 44%
    09:00 +32°C° 0 mm 5 mps 736 mmHg 37%
    10:00 +34°C° 0 mm 7 mps 736 mmHg 31%
    11:00 +34°C° 0 mm 7 mps 735 mmHg 32%
    12:00 +34°C° 0 mm 8 mps 735 mmHg 34%
    13:00 +35°C° 0 mm 8 mps 735 mmHg 36%
    14:00 +34°C° 0 mm 8 mps 735 mmHg 37%
    15:00 +34°C° 0 mm 9 mps 735 mmHg 39%
    16:00 +33°C° 0 mm 9 mps 735 mmHg 40%
    17:00 +31°C° 0 mm 8 mps 735 mmHg 44%
    18:00 +28°C° 0 mm 7 mps 735 mmHg 48%
    19:00 +27°C° 0 mm 6 mps 735 mmHg 52%
    20:00 +24°C° 0 mm 6 mps 735 mmHg 54%
    21:00 +23°C° 0 mm 6 mps 735 mmHg 56%
    22:00 +22°C° 0 mm 6 mps 735 mmHg 58%
    23:00 +21°C° 0 mm 6 mps 735 mmHg 60%

    1 June, Monday

    Time Temperature Precipitation Wind Pressure Humidity
    00:00 +20°C° 0 mm 6 mps 735 mmHg 63%
    01:00 +20°C° 0 mm 6 mps 736 mmHg 65%
    02:00 +19°C° 0 mm 5 mps 735 mmHg 66%
    03:00 +17°C° 0 mm 5 mps 735 mmHg 67%
    04:00 +16°C° 0 mm 5 mps 735 mmHg 68%
    05:00 +17°C° 0 mm 6 mps 735 mmHg 66%
    06:00 +18°C° 0 mm 7 mps 736 mmHg 64%
    07:00 +20°C° 0 mm 7 mps 736 mmHg 62%
    08:00 +21°C° 0 mm 8 mps 736 mmHg 57%
    09:00 +22°C° 0 mm 8 mps 736 mmHg 52%
    10:00 +23°C° 0 mm 8 mps 736 mmHg 47%
    11:00 +23°C° 0 mm 8 mps 736 mmHg 44%
    12:00 +24°C° 0 mm 9 mps 736 mmHg 41%
    13:00 +26°C° 0 mm 9 mps 735 mmHg 38%
    14:00 +26°C° 0 mm 9 mps 735 mmHg 38%
    15:00 +26°C° 0 mm 9 mps 735 mmHg 39%
    16:00 +26°C° 0 mm 9 mps 735 mmHg 39%
    17:00 +24°C° 0 mm 8 mps 735 mmHg 44%
    18:00 +22°C° 0 mm 7 mps 735 mmHg 48%
    19:00 +21°C° 0 mm 6 mps 735 mmHg 53%
    20:00 +20°C° 0 mm 5 mps 735 mmHg 59%
    21:00 +17°C° 0 mm 5 mps 735 mmHg 65%
    22:00 +17°C° 0 mm 4 mps 735 mmHg 70%
    23:00 +15°C° 0 mm 4 mps 735 mmHg 73%

    2 June, Tuesday

    Time Temperature Precipitation Wind Pressure Humidity
    00:00 +14°C° 0 mm 4 mps 735 mmHg 75%
    01:00 +12°C° 0 mm 4 mps 735 mmHg 77%
    02:00 +12°C° 0 mm 3 mps 736 mmHg 78%
    03:00 +11°C° 0 mm 3 mps 736 mmHg 79%
    04:00 +10°C° 0 mm 3 mps 736 mmHg 80%
    05:00 +11°C° 0 mm 3 mps 736 mmHg 76%
    06:00 +11°C° 0 mm 4 mps 737 mmHg 71%
    07:00 +12°C° 0 mm 4 mps 737 mmHg 67%
    08:00 +13°C° 0 mm 4 mps 737 mmHg 60%
    09:00 +15°C° 0 mm 4 mps 737 mmHg 53%
    10:00 +17°C° 0 mm 4 mps 737 mmHg 46%
    11:00 +18°C° 0 mm 4 mps 737 mmHg 42%
    12:00 +20°C° 0 mm 4 mps 738 mmHg 38%
    13:00 +21°C° 0 mm 4 mps 738 mmHg 34%
    14:00 +21°C° 0 mm 4 mps 738 mmHg 34%
    15:00 +21°C° 0 mm 4 mps 738 mmHg 34%
    16:00 +21°C° 0 mm 4 mps 738 mmHg 34%
    17:00 +20°C° 0 mm 4 mps 737 mmHg 39%
    18:00 +20°C° 0 mm 3 mps 737 mmHg 43%
    19:00 +19°C° 0 mm 2 mps 737 mmHg 48%
    20:00 +17°C° 0.3 mm 2 mps 737 mmHg 55%
    21:00 +16°C° 0.3 mm 2 mps 737 mmHg 63%
    22:00 +15°C° 0.3 mm 2 mps 737 mmHg 71%
    23:00 +14°C° 0.9 mm 2 mps 737 mmHg 77%

    3 June, Wednesday

    Time Temperature Precipitation Wind Pressure Humidity
    00:00 +13°C° 0.9 mm 2 mps 737 mmHg 83%
    01:00 +12°C° 0.9 mm 3 mps 737 mmHg 88%
    02:00 +12°C° 0.4 mm 2 mps 737 mmHg 89%
    03:00 +12°C° 0.4 mm 2 mps 736 mmHg 91%
    04:00 +12°C° 0.4 mm 2 mps 736 mmHg 92%
    05:00 +13°C° 0 mm 2 mps 736 mmHg 87%
    06:00 +14°C° 0 mm 2 mps 736 mmHg 82%
    07:00 +15°C° 0 mm 2 mps 736 mmHg 77%
    08:00 +16°C° 0 mm 2 mps 736 mmHg 72%
    09:00 +17°C° 0 mm 2 mps 736 mmHg 66%
    10:00 +18°C° 0 mm 3 mps 736 mmHg 61%
    11:00 +19°C° 0 mm 2 mps 735 mmHg 57%
    12:00 +20°C° 0 mm 2 mps 735 mmHg 54%
    13:00 +21°C° 0 mm 2 mps 735 mmHg 51%
    14:00 +21°C° 0.1 mm 2 mps 734 mmHg 52%
    15:00 +21°C° 0.1 mm 2 mps 734 mmHg 53%
    16:00 +22°C° 0.1 mm 1 mps 734 mmHg 54%
    17:00 +20°C° 0.6 mm 2 mps 733 mmHg 60%
    18:00 +19°C° 0.6 mm 2 mps 733 mmHg 66%
    19:00 +18°C° 0.6 mm 3 mps 733 mmHg 72%
    20:00 +17°C° 0.1 mm 3 mps 733 mmHg 74%
    21:00 +16°C° 0.1 mm 3 mps 733 mmHg 76%
    22:00 +14°C° 0.1 mm 3 mps 733 mmHg 79%
    23:00 +14°C° 0 mm 3 mps 733 mmHg 81%
    Show more